Location: Bavegemberg
(50.9500°N, 3.8833°E)
Time: 04:12:44
(UTC+00:00)

Resurs 1-4 Rocket - Pass Details

Date: 23 May 2024
Orbit: 798 x 813 km, 98.7° (Epoch: 21 June)

Event Time Altitude Azimuth Distance (km) Brightness Sun altitude
Rises 00:25:20 0° 27° (NNE) 3,319 6.8 -17.8°
Reaches altitude 10° 00:28:27 10° 46° (NE) 2,382 5.4 -17.7°
Maximum altitude 00:31:59 18° 89° (E) 1,882 4.2 -17.5°
Drops below altitude 10° 00:35:29 10° 131° (SE) 2,371 4.3 -17.4°
Enters shadow 00:36:02 - 135° (SE) 2,515 4.4 -17.4°
